Wolke Sonne

Wetter Roßtal

Gehe zu: Ammerndorf

Tageswerte vom Mittwoch, 04.08.2021

Optionen

Tag:
Erweitert:

Alle Werte vom Mittwoch, 04.08.2021

Einen Moment bitte, die Daten werden aufbereitet...

UhrzeitTemperaturFeuchteLuftdruckNiederschlagEvapotranspirationNiederschlag?WindWindböenRegenrateWindrichtungHelligkeitSolarstrahlungUV-IndexSonne?Feinstaub 10µmUhrzeit
Diagramm IconDiagramm IconDiagramm IconDiagramm IconDiagramm IconDiagramm IconDiagramm IconDiagramm IconDiagramm IconDiagramm IconDiagramm IconDiagramm IconDiagramm IconDiagramm IconDiagramm Icon
00:0015,6 °C 82 % 1015,1 hPa 0,0 mm 0,0 mm nein 4,8 km/h 12,9 km/h 0,0 mm/h SSW 0,000 klux 0,0 W/qm 0,0 nein - 00:00
00:0515,0 °C 82 % 1015,4 hPa 0,0 mm 0,0 mm nein 3,2 km/h 8,0 km/h 0,0 mm/h SSW 0,000 klux 0,0 W/qm 0,0 nein - 00:05
00:1015,0 °C 82 % 1015,3 hPa 0,0 mm 0,0 mm nein 3,2 km/h 8,0 km/h 0,0 mm/h SSW 0,000 klux 0,0 W/qm 0,0 nein - 00:10
00:1515,0 °C 82 % 1015,3 hPa 0,0 mm 0,0 mm nein 4,8 km/h 8,0 km/h 0,0 mm/h SSW 0,000 klux 0,0 W/qm 0,0 nein - 00:15
00:2015,0 °C 82 % 1015,3 hPa 0,0 mm 0,0 mm nein 4,8 km/h 9,7 km/h 0,0 mm/h S 0,000 klux 0,0 W/qm 0,0 nein - 00:20
00:2515,0 °C 82 % 1015,1 hPa 0,0 mm 0,0 mm nein 3,2 km/h 6,4 km/h 0,0 mm/h S 0,000 klux 0,0 W/qm 0,0 nein - 00:25
00:3015,0 °C 82 % 1015,3 hPa 0,0 mm 0,0 mm nein 3,2 km/h 6,4 km/h 0,0 mm/h S 0,000 klux 0,0 W/qm 0,0 nein - 00:30
00:3515,0 °C 82 % 1015,1 hPa 0,0 mm 0,0 mm nein 4,8 km/h 8,0 km/h 0,0 mm/h S 0,000 klux 0,0 W/qm 0,0 nein - 00:35
00:4015,0 °C 83 % 1015,1 hPa 0,0 mm 0,0 mm nein 4,8 km/h 9,7 km/h 0,0 mm/h S 0,000 klux 0,0 W/qm 0,0 nein - 00:40
00:4515,0 °C 83 % 1015,0 hPa 0,0 mm 0,0 mm nein 3,2 km/h 8,0 km/h 0,0 mm/h SSW 0,000 klux 0,0 W/qm 0,0 nein - 00:45
00:5015,0 °C 83 % 1015,1 hPa 0,0 mm 0,0 mm nein 3,2 km/h 6,4 km/h 0,0 mm/h S 0,000 klux 0,0 W/qm 0,0 nein - 00:50
00:5515,0 °C 83 % 1014,9 hPa 0,0 mm 0,0 mm nein 3,2 km/h 6,4 km/h 0,0 mm/h SSW 0,000 klux 0,0 W/qm 0,0 nein - 00:55
01:0015,0 °C 83 % 1014,9 hPa 0,0 mm 0,0 mm nein 3,2 km/h 9,7 km/h 0,0 mm/h S 0,000 klux 0,0 W/qm 0,0 nein - 01:00
01:0515,0 °C 83 % 1014,9 hPa 0,0 mm 0,0 mm nein 3,2 km/h 8,0 km/h 0,0 mm/h S 0,000 klux 0,0 W/qm 0,0 nein - 01:05
01:1015,0 °C 83 % 1014,9 hPa 0,0 mm 0,0 mm nein 3,2 km/h 8,0 km/h 0,0 mm/h SSW 0,000 klux 0,0 W/qm 0,0 nein - 01:10
01:1515,0 °C 83 % 1014,9 hPa 0,0 mm 0,0 mm nein 3,2 km/h 8,0 km/h 0,0 mm/h SSW 0,000 klux 0,0 W/qm 0,0 nein - 01:15
01:2014,4 °C 84 % 1015,0 hPa 0,0 mm 0,0 mm nein 3,2 km/h 4,8 km/h 0,0 mm/h SSW 0,000 klux 0,0 W/qm 0,0 nein - 01:20
01:2514,4 °C 84 % 1015,0 hPa 0,0 mm 0,0 mm nein 3,2 km/h 6,4 km/h 0,0 mm/h S 0,000 klux 0,0 W/qm 0,0 nein - 01:25
01:3014,4 °C 84 % 1015,0 hPa 0,0 mm 0,0 mm nein 4,8 km/h 8,0 km/h 0,0 mm/h S 0,000 klux 0,0 W/qm 0,0 nein - 01:30
01:3514,4 °C 84 % 1015,0 hPa 0,0 mm 0,0 mm nein 4,8 km/h 11,3 km/h 0,0 mm/h S 0,000 klux 0,0 W/qm 0,0 nein - 01:35
01:4014,4 °C 84 % 1015,0 hPa 0,0 mm 0,0 mm nein 4,8 km/h 8,0 km/h 0,0 mm/h S 0,000 klux 0,0 W/qm 0,0 nein - 01:40
01:4514,4 °C 85 % 1014,9 hPa 0,0 mm 0,0 mm nein 6,4 km/h 12,9 km/h 0,0 mm/h SSW 0,000 klux 0,0 W/qm 0,0 nein - 01:45
01:5014,4 °C 85 % 1014,9 hPa 0,0 mm 0,0 mm nein 3,2 km/h 11,3 km/h 0,0 mm/h S 0,000 klux 0,0 W/qm 0,0 nein - 01:50
01:5514,4 °C 85 % 1014,9 hPa 0,0 mm 0,0 mm nein 6,4 km/h 12,9 km/h 0,0 mm/h S 0,000 klux 0,0 W/qm 0,0 nein - 01:55
UhrzeitTemperaturFeuchteLuftdruckNiederschlagEvapotranspirationNiederschlag?WindWindböenRegenrateWindrichtungHelligkeitSolarstrahlungUV-IndexSonne?Feinstaub 10µmUhrzeit
02:0014,4 °C 85 % 1014,9 hPa 0,0 mm 0,0 mm nein 4,8 km/h 12,9 km/h 0,0 mm/h S 0,000 klux 0,0 W/qm 0,0 nein - 02:00
02:0514,4 °C 86 % 1014,9 hPa 0,0 mm 0,0 mm nein 8,0 km/h 16,1 km/h 0,0 mm/h S 0,000 klux 0,0 W/qm 0,0 nein - 02:05
02:1014,4 °C 86 % 1014,9 hPa 0,0 mm 0,0 mm nein 4,8 km/h 16,1 km/h 0,0 mm/h S 0,000 klux 0,0 W/qm 0,0 nein - 02:10
02:1514,4 °C 86 % 1014,9 hPa 0,0 mm 0,0 mm nein 6,4 km/h 12,9 km/h 0,0 mm/h S 0,000 klux 0,0 W/qm 0,0 nein - 02:15
02:2014,4 °C 86 % 1015,0 hPa 0,0 mm 0,0 mm nein 3,2 km/h 8,0 km/h 0,0 mm/h S 0,000 klux 0,0 W/qm 0,0 nein - 02:20
02:2514,4 °C 86 % 1015,0 hPa 0,0 mm 0,0 mm nein 4,8 km/h 8,0 km/h 0,0 mm/h S 0,000 klux 0,0 W/qm 0,0 nein - 02:25
02:3014,4 °C 86 % 1015,0 hPa 0,0 mm 0,0 mm nein 4,8 km/h 8,0 km/h 0,0 mm/h SSW 0,000 klux 0,0 W/qm 0,0 nein - 02:30
02:3514,4 °C 87 % 1015,0 hPa 0,0 mm 0,0 mm nein 4,8 km/h 8,0 km/h 0,0 mm/h SSW 0,000 klux 0,0 W/qm 0,0 nein - 02:35
02:4014,4 °C 87 % 1015,0 hPa 0,0 mm 0,0 mm nein 4,8 km/h 9,7 km/h 0,0 mm/h S 0,000 klux 0,0 W/qm 0,0 nein - 02:40
02:4514,4 °C 87 % 1015,0 hPa 0,0 mm 0,0 mm nein 3,2 km/h 6,4 km/h 0,0 mm/h S 0,000 klux 0,0 W/qm 0,0 nein - 02:45
02:5014,4 °C 87 % 1015,0 hPa 0,0 mm 0,0 mm nein 4,8 km/h 9,7 km/h 0,0 mm/h S 0,000 klux 0,0 W/qm 0,0 nein - 02:50
02:5514,4 °C 87 % 1015,0 hPa 0,0 mm 0,0 mm nein 4,8 km/h 11,3 km/h 0,0 mm/h SW 0,000 klux 0,0 W/qm 0,0 nein - 02:55
03:0014,4 °C 87 % 1014,9 hPa 0,0 mm 0,0 mm nein 4,8 km/h 12,9 km/h 0,0 mm/h SW 0,000 klux 0,0 W/qm 0,0 nein - 03:00
03:0514,4 °C 87 % 1015,0 hPa 0,0 mm 0,0 mm nein 4,8 km/h 12,9 km/h 0,0 mm/h SSW 0,000 klux 0,0 W/qm 0,0 nein - 03:05
03:1014,4 °C 87 % 1015,0 hPa 0,0 mm 0,0 mm nein 6,4 km/h 12,9 km/h 0,0 mm/h SSW 0,000 klux 0,0 W/qm 0,0 nein - 03:10
03:1514,4 °C 87 % 1015,0 hPa 0,0 mm 0,0 mm nein 4,8 km/h 16,1 km/h 0,0 mm/h SSW 0,000 klux 0,0 W/qm 0,0 nein - 03:15
03:2014,4 °C 87 % 1015,0 hPa 0,0 mm 0,0 mm nein 4,8 km/h 12,9 km/h 0,0 mm/h S 0,000 klux 0,0 W/qm 0,0 nein - 03:20
03:2514,4 °C 87 % 1015,0 hPa 0,0 mm 0,0 mm nein 6,4 km/h 14,5 km/h 0,0 mm/h SSW 0,000 klux 0,0 W/qm 0,0 nein - 03:25
03:3014,4 °C 87 % 1015,0 hPa 0,0 mm 0,0 mm nein 4,8 km/h 12,9 km/h 0,0 mm/h SSW 0,000 klux 0,0 W/qm 0,0 nein - 03:30
03:3514,4 °C 87 % 1015,0 hPa 0,0 mm 0,0 mm nein 4,8 km/h 8,0 km/h 0,0 mm/h SSW 0,000 klux 0,0 W/qm 0,0 nein - 03:35
03:4014,4 °C 87 % 1014,9 hPa 0,0 mm 0,0 mm nein 4,8 km/h 12,9 km/h 0,0 mm/h SSW 0,000 klux 0,0 W/qm 0,0 nein - 03:40
03:4514,4 °C 87 % 1014,9 hPa 0,0 mm 0,0 mm nein 6,4 km/h 14,5 km/h 0,0 mm/h S 0,000 klux 0,0 W/qm 0,0 nein - 03:45
03:5014,4 °C 87 % 1014,9 hPa 0,0 mm 0,0 mm nein 4,8 km/h 12,9 km/h 0,0 mm/h S 0,000 klux 0,0 W/qm 0,0 nein - 03:50
03:5514,4 °C 87 % 1014,9 hPa 0,0 mm 0,0 mm nein 3,2 km/h 11,3 km/h 0,0 mm/h S 0,000 klux 0,0 W/qm 0,0 nein - 03:55
UhrzeitTemperaturFeuchteLuftdruckNiederschlagEvapotranspirationNiederschlag?WindWindböenRegenrateWindrichtungHelligkeitSolarstrahlungUV-IndexSonne?Feinstaub 10µmUhrzeit
04:0014,4 °C 87 % 1014,9 hPa 0,0 mm 0,0 mm nein 4,8 km/h 9,7 km/h 0,0 mm/h SSW 0,000 klux 0,0 W/qm 0,0 nein - 04:00
04:0514,4 °C 87 % 1015,0 hPa 0,0 mm 0,0 mm nein 3,2 km/h 8,0 km/h 0,0 mm/h SSW 0,000 klux 0,0 W/qm 0,0 nein - 04:05
04:1014,4 °C 87 % 1014,9 hPa 0,0 mm 0,0 mm nein 3,2 km/h 6,4 km/h 0,0 mm/h SSW 0,000 klux 0,0 W/qm 0,0 nein - 04:10
04:1514,4 °C 87 % 1014,9 hPa 0,0 mm 0,0 mm nein 3,2 km/h 12,9 km/h 0,0 mm/h SW 0,000 klux 0,0 W/qm 0,0 nein - 04:15
04:2014,4 °C 87 % 1015,0 hPa 0,0 mm 0,0 mm nein 3,2 km/h 8,0 km/h 0,0 mm/h SSW 0,000 klux 0,0 W/qm 0,0 nein - 04:20
04:2514,4 °C 88 % 1014,9 hPa 0,0 mm 0,0 mm nein 3,2 km/h 8,0 km/h 0,0 mm/h S 0,000 klux 0,0 W/qm 0,0 nein - 04:25
04:3014,4 °C 88 % 1014,9 hPa 0,0 mm 0,0 mm nein 4,8 km/h 12,9 km/h 0,0 mm/h SSW 0,000 klux 0,0 W/qm 0,0 nein - 04:30
04:3514,4 °C 88 % 1014,8 hPa 0,0 mm 0,0 mm nein 3,2 km/h 8,0 km/h 0,0 mm/h SSW 0,000 klux 0,0 W/qm 0,0 nein - 04:35
04:4014,4 °C 88 % 1014,7 hPa 0,0 mm 0,0 mm nein 3,2 km/h 6,4 km/h 0,0 mm/h WSW 0,000 klux 0,0 W/qm 0,0 nein - 04:40
04:4514,4 °C 88 % 1014,7 hPa 0,0 mm 0,0 mm nein 1,6 km/h 4,8 km/h 0,0 mm/h SSW 0,000 klux 0,0 W/qm 0,0 nein - 04:45
04:5013,9 °C 88 % 1014,8 hPa 0,0 mm 0,0 mm nein 1,6 km/h 4,8 km/h 0,0 mm/h SSW 0,000 klux 0,0 W/qm 0,0 nein - 04:50
04:5513,9 °C 88 % 1014,9 hPa 0,0 mm 0,0 mm nein 1,6 km/h 4,8 km/h 0,0 mm/h S 0,000 klux 0,0 W/qm 0,0 nein - 04:55
05:0013,9 °C 88 % 1014,9 hPa 0,0 mm 0,0 mm nein 1,6 km/h 6,4 km/h 0,0 mm/h S 0,000 klux 0,0 W/qm 0,0 nein - 05:00
05:0513,9 °C 88 % 1014,9 hPa 0,0 mm 0,0 mm nein 3,2 km/h 8,0 km/h 0,0 mm/h SSW 0,000 klux 0,0 W/qm 0,0 nein - 05:05
05:1013,9 °C 88 % 1015,0 hPa 0,0 mm 0,0 mm nein 4,8 km/h 11,3 km/h 0,0 mm/h S 0,000 klux 0,0 W/qm 0,0 nein - 05:10
05:1513,9 °C 89 % 1015,0 hPa 0,0 mm 0,0 mm nein 3,2 km/h 6,4 km/h 0,0 mm/h S 0,000 klux 0,0 W/qm 0,0 nein - 05:15
05:2013,9 °C 89 % 1015,1 hPa 0,0 mm 0,0 mm nein 3,2 km/h 8,0 km/h 0,0 mm/h S 0,000 klux 0,0 W/qm 0,0 nein - 05:20
05:2513,9 °C 89 % 1015,1 hPa 0,0 mm 0,0 mm nein 3,2 km/h 9,7 km/h 0,0 mm/h S 0,000 klux 0,0 W/qm 0,0 nein - 05:25
05:3013,9 °C 89 % 1015,0 hPa 0,0 mm 0,0 mm nein 3,2 km/h 8,0 km/h 0,0 mm/h S 0,000 klux 0,0 W/qm 0,0 nein - 05:30
05:3513,9 °C 89 % 1015,0 hPa 0,0 mm 0,0 mm nein 3,2 km/h 8,0 km/h 0,0 mm/h S 0,000 klux 0,0 W/qm 0,0 nein - 05:35
05:4013,9 °C 89 % 1015,0 hPa 0,0 mm 0,0 mm nein 3,2 km/h 6,4 km/h 0,0 mm/h SW 0,000 klux 0,0 W/qm 0,0 nein - 05:40
05:4513,9 °C 90 % 1015,0 hPa 0,0 mm 0,0 mm nein 1,6 km/h 4,8 km/h 0,0 mm/h S 0,000 klux 0,0 W/qm 0,0 nein - 05:45
05:5013,9 °C 90 % 1015,0 hPa 0,0 mm 0,0 mm nein 3,2 km/h 4,8 km/h 0,0 mm/h S 0,000 klux 0,0 W/qm 0,0 nein - 05:50
05:5513,9 °C 90 % 1014,9 hPa 0,0 mm 0,0 mm nein 4,8 km/h 6,4 km/h 0,0 mm/h S 0,000 klux 0,0 W/qm 0,0 nein - 05:55
UhrzeitTemperaturFeuchteLuftdruckNiederschlagEvapotranspirationNiederschlag?WindWindböenRegenrateWindrichtungHelligkeitSolarstrahlungUV-IndexSonne?Feinstaub 10µmUhrzeit
06:0013,9 °C 90 % 1015,0 hPa 0,0 mm 0,0 mm nein 3,2 km/h 6,4 km/h 0,0 mm/h SSO 0,000 klux 0,0 W/qm 0,0 nein - 06:00
06:0513,9 °C 90 % 1015,0 hPa 0,0 mm 0,0 mm nein 4,8 km/h 8,0 km/h 0,0 mm/h S 0,000 klux 2,0 W/qm 0,0 nein - 06:05
06:1013,9 °C 90 % 1015,0 hPa 0,0 mm 0,0 mm nein 3,2 km/h 6,4 km/h 0,0 mm/h S 0,000 klux 6,0 W/qm 0,0 nein - 06:10
06:1513,9 °C 90 % 1015,0 hPa 0,0 mm 0,0 mm nein 3,2 km/h 8,0 km/h 0,0 mm/h S 0,000 klux 11,0 W/qm 0,0 nein - 06:15
06:2013,9 °C 90 % 1014,9 hPa 0,0 mm 0,0 mm nein 4,8 km/h 8,0 km/h 0,0 mm/h S 0,000 klux 12,0 W/qm 0,0 nein - 06:20
06:2513,9 °C 90 % 1015,0 hPa 0,0 mm 0,0 mm nein 4,8 km/h 8,0 km/h 0,0 mm/h S 0,000 klux 16,0 W/qm 0,0 nein - 06:25
06:3013,9 °C 90 % 1015,0 hPa 0,0 mm 0,0 mm nein 3,2 km/h 8,0 km/h 0,0 mm/h S 0,000 klux 19,0 W/qm 0,0 nein - 06:30
06:3513,9 °C 90 % 1015,0 hPa 0,0 mm 0,0 mm nein 3,2 km/h 6,4 km/h 0,0 mm/h S 0,000 klux 23,0 W/qm 0,0 nein - 06:35
06:4013,9 °C 90 % 1015,0 hPa 0,0 mm 0,0 mm nein 3,2 km/h 6,4 km/h 0,0 mm/h S 0,000 klux 24,0 W/qm 0,0 nein - 06:40
06:4513,9 °C 90 % 1015,0 hPa 0,0 mm 0,0 mm nein 1,6 km/h 4,8 km/h 0,0 mm/h S 0,000 klux 26,0 W/qm 0,0 nein - 06:45
06:5013,9 °C 91 % 1015,1 hPa 0,0 mm 0,0 mm nein 3,2 km/h 6,4 km/h 0,0 mm/h S 0,000 klux 34,0 W/qm 0,0 nein - 06:50
06:5513,9 °C 91 % 1015,1 hPa 0,0 mm 0,0 mm nein 1,6 km/h 6,4 km/h 0,0 mm/h S 0,000 klux 35,0 W/qm 0,0 nein - 06:55
07:0013,9 °C 91 % 1015,1 hPa 0,0 mm 0,0 mm nein 1,6 km/h 4,8 km/h 0,0 mm/h S 0,000 klux 46,0 W/qm 0,0 nein - 07:00
07:0514,4 °C 91 % 1015,1 hPa 0,0 mm 0,0 mm nein 3,2 km/h 6,4 km/h 0,0 mm/h S 0,000 klux 51,0 W/qm 0,0 nein - 07:05
07:1014,4 °C 91 % 1015,1 hPa 0,0 mm 0,0 mm nein 3,2 km/h 6,4 km/h 0,0 mm/h S 0,000 klux 52,0 W/qm 0,0 nein - 07:10
07:1514,4 °C 91 % 1015,0 hPa 0,0 mm 0,0 mm nein 3,2 km/h 6,4 km/h 0,0 mm/h S 0,000 klux 64,0 W/qm 0,0 nein - 07:15
07:2014,4 °C 91 % 1015,0 hPa 0,0 mm 0,0 mm nein 3,2 km/h 6,4 km/h 0,0 mm/h S 0,000 klux 71,0 W/qm 0,0 nein - 07:20
07:2514,4 °C 91 % 1015,0 hPa 0,0 mm 0,0 mm nein 3,2 km/h 8,0 km/h 0,0 mm/h S 0,000 klux 75,0 W/qm 0,0 nein - 07:25
07:3014,4 °C 90 % 1015,1 hPa 0,0 mm 0,0 mm nein 4,8 km/h 12,9 km/h 0,0 mm/h SSO 0,000 klux 81,0 W/qm 0,0 nein - 07:30
07:3514,4 °C 91 % 1015,0 hPa 0,0 mm 0,0 mm nein 4,8 km/h 11,3 km/h 0,0 mm/h S 0,000 klux 89,0 W/qm 0,0 nein - 07:35
07:4014,4 °C 91 % 1015,0 hPa 0,0 mm 0,0 mm nein 3,2 km/h 6,4 km/h 0,0 mm/h S 0,000 klux 98,0 W/qm 0,0 nein - 07:40
07:4514,4 °C 90 % 1015,1 hPa 0,0 mm 0,0 mm nein 3,2 km/h 6,4 km/h 0,0 mm/h S 0,000 klux 107,0 W/qm 0,0 nein - 07:45
07:5014,4 °C 90 % 1015,0 hPa 0,0 mm 0,0 mm nein 1,6 km/h 4,8 km/h 0,0 mm/h SSO 0,000 klux 124,0 W/qm 0,0 nein - 07:50
07:5514,4 °C 90 % 1015,0 hPa 0,0 mm 0,0 mm nein 1,6 km/h 6,4 km/h 0,0 mm/h SSO 0,000 klux 133,0 W/qm 0,0 nein - 07:55
UhrzeitTemperaturFeuchteLuftdruckNiederschlagEvapotranspirationNiederschlag?WindWindböenRegenrateWindrichtungHelligkeitSolarstrahlungUV-IndexSonne?Feinstaub 10µmUhrzeit
08:0015,0 °C 90 % 1014,9 hPa 0,0 mm 0,1 mm nein 4,8 km/h 8,0 km/h 0,0 mm/h S 0,000 klux 144,0 W/qm 0,0 nein - 08:00
08:0515,0 °C 89 % 1014,9 hPa 0,0 mm 0,0 mm nein 3,2 km/h 9,7 km/h 0,0 mm/h SSW 0,000 klux 157,0 W/qm 0,0 nein - 08:05
08:1015,0 °C 89 % 1014,9 hPa 0,0 mm 0,0 mm nein 1,6 km/h 6,4 km/h 0,0 mm/h SSW 0,000 klux 167,0 W/qm 0,0 nein - 08:10
08:1515,0 °C 89 % 1015,0 hPa 0,0 mm 0,0 mm nein 1,6 km/h 6,4 km/h 0,0 mm/h WSW 0,000 klux 172,0 W/qm 0,0 nein - 08:15
08:2015,0 °C 88 % 1015,0 hPa 0,0 mm 0,0 mm nein 4,8 km/h 9,7 km/h 0,0 mm/h SW 0,000 klux 175,0 W/qm 0,3 nein - 08:20
08:2515,0 °C 88 % 1015,0 hPa 0,0 mm 0,0 mm nein 1,6 km/h 4,8 km/h 0,0 mm/h S 0,000 klux 183,0 W/qm 0,5 nein - 08:25
08:3015,6 °C 87 % 1014,9 hPa 0,0 mm 0,0 mm nein 4,8 km/h 14,5 km/h 0,0 mm/h SSW 0,000 klux 198,0 W/qm 0,6 nein - 08:30
08:3515,6 °C 87 % 1015,0 hPa 0,0 mm 0,0 mm nein 3,2 km/h 8,0 km/h 0,0 mm/h SSW 0,000 klux 203,0 W/qm 0,6 nein - 08:35
08:4015,6 °C 86 % 1014,9 hPa 0,0 mm 0,0 mm nein 3,2 km/h 8,0 km/h 0,0 mm/h S 0,000 klux 212,0 W/qm 0,6 nein - 08:40
08:4515,6 °C 86 % 1014,9 hPa 0,0 mm 0,0 mm nein 4,8 km/h 9,7 km/h 0,0 mm/h SW 0,000 klux 210,0 W/qm 0,6 nein - 08:45
08:5015,6 °C 86 % 1015,0 hPa 0,0 mm 0,0 mm nein 1,6 km/h 6,4 km/h 0,0 mm/h W 0,000 klux 208,0 W/qm 0,6 nein - 08:50
08:5516,1 °C 86 % 1014,9 hPa 0,0 mm 0,0 mm nein 3,2 km/h 8,0 km/h 0,0 mm/h W 0,000 klux 239,0 W/qm 0,8 nein - 08:55
09:0016,1 °C 86 % 1014,8 hPa 0,0 mm 0,1 mm nein 3,2 km/h 6,4 km/h 0,0 mm/h SW 0,000 klux 268,0 W/qm 0,9 nein - 09:00
09:0516,1 °C 85 % 1014,8 hPa 0,0 mm 0,0 mm nein 4,8 km/h 9,7 km/h 0,0 mm/h WNW 0,000 klux 281,0 W/qm 0,9 nein - 09:05
09:1016,1 °C 84 % 1014,8 hPa 0,0 mm 0,0 mm nein 3,2 km/h 11,3 km/h 0,0 mm/h W 0,000 klux 270,0 W/qm 0,9 nein - 09:10
09:1516,7 °C 83 % 1014,7 hPa 0,0 mm 0,0 mm nein 4,8 km/h 12,9 km/h 0,0 mm/h W 0,000 klux 216,0 W/qm 0,7 nein - 09:15
09:2016,7 °C 82 % 1014,7 hPa 0,0 mm 0,0 mm nein 4,8 km/h 8,0 km/h 0,0 mm/h SW 0,000 klux 231,0 W/qm 0,9 nein - 09:20
09:2516,7 °C 83 % 1014,6 hPa 0,0 mm 0,0 mm nein 4,8 km/h 9,7 km/h 0,0 mm/h W 0,000 klux 253,0 W/qm 1,0 nein - 09:25
09:3016,7 °C 83 % 1014,6 hPa 0,0 mm 0,0 mm nein 3,2 km/h 8,0 km/h 0,0 mm/h W 0,000 klux 317,0 W/qm 1,2 nein - 09:30
09:3516,7 °C 82 % 1014,5 hPa 0,0 mm 0,0 mm nein 1,6 km/h 11,3 km/h 0,0 mm/h WNW 0,000 klux 355,0 W/qm 1,4 nein - 09:35
09:4017,2 °C 82 % 1014,7 hPa 0,0 mm 0,0 mm nein 3,2 km/h 8,0 km/h 0,0 mm/h WNW 0,000 klux 365,0 W/qm 1,5 nein - 09:40
09:4517,2 °C 82 % 1014,7 hPa 0,0 mm 0,0 mm nein 3,2 km/h 8,0 km/h 0,0 mm/h S 0,000 klux 309,0 W/qm 1,3 nein - 09:45
09:5017,2 °C 81 % 1014,7 hPa 0,0 mm 0,0 mm nein 3,2 km/h 9,7 km/h 0,0 mm/h SSW 0,000 klux 322,0 W/qm 1,4 nein - 09:50
09:5517,2 °C 81 % 1014,7 hPa 0,0 mm 0,0 mm nein 4,8 km/h 9,7 km/h 0,0 mm/h SSW 0,000 klux 363,0 W/qm 1,9 nein - 09:55
UhrzeitTemperaturFeuchteLuftdruckNiederschlagEvapotranspirationNiederschlag?WindWindböenRegenrateWindrichtungHelligkeitSolarstrahlungUV-IndexSonne?Feinstaub 10µmUhrzeit
10:0017,8 °C 79 % 1014,6 hPa 0,0 mm 0,2 mm nein 3,2 km/h 8,0 km/h 0,0 mm/h WSW 0,000 klux 248,0 W/qm 1,4 nein - 10:00
10:0517,8 °C 79 % 1014,6 hPa 0,0 mm 0,0 mm nein 3,2 km/h 8,0 km/h 0,0 mm/h S 0,000 klux 476,0 W/qm 2,2 nein - 10:05
10:1017,8 °C 79 % 1014,6 hPa 0,0 mm 0,0 mm nein 3,2 km/h 8,0 km/h 0,0 mm/h SSW 0,000 klux 461,0 W/qm 1,9 nein - 10:10
Gesamt: 14,8 °C 87 % 1014,9 hPa 0,0 mm 0,5 mm nein 3,7 km/h 8,8 km/h 0,0 mm/h 0 0,000 klux 66,7 W/qm 0,2 nein nan µg/m³

Insgesamt 123 Zeilen mal 15 Spalten = 1845 Werte werden angezeigt.

www.wetter-rosstal.de   •   www.wetter-franken.de   •   www.lightningmaps.org   •   Start   •   Kontakt / Datenschutz   •   PC-Kümmerer